Location: Home
(42.5358°N, 72.7383°W)
Time: 05:20:51
(UTC-05:00)

Explorer 11/Cluster Stage 4 - Pass Details

Date: 08 December 2021
Orbit: 467 x 1255 km, 28.8° (Epoch: 25 January)

Event Time Altitude Azimuth Distance (km) Brightness Sun altitude
Rises 04:28:50 0° 253° (WSW) 3,615 - -28.5°
Reaches altitude 10° 04:32:29 10° 232° (SW) 2,823 - -27.8°
Exits shadow 04:35:43 16° 205° (SSW) 2,538 9.0 -27.3°
Maximum altitude 04:36:28 16° 197° (SSW) 2,546 9.0 -27.1°
Drops below altitude 10° 04:40:46 10° 163° (SSE) 3,088 9.9 -26.3°
Sets 04:45:04 0° 144° (SE) 4,137 10.9 -25.5°
